Date,TemperatureHighF,TemperatureAvgF,TemperatureLowF,DewpointHighF,DewpointAvgF,DewpointLowF,HumidityHigh,HumidityAvg,HumidityLow,PressureMaxIn,PressureMinIn,WindSpeedMaxMPH,WindSpeedAvgMPH,GustSpeedMaxMPH,PrecipitationSumIn
2013-3-1,43.3,39.2,36.1,36.2,33.9,32.1,98,82,67,29.65,29.58,10,2,0,0.00
2013-3-2,43.7,35.8,29.5,38.6,31.2,23.2,98,84,71,29.68,29.55,11,3,0,0.00
2013-3-3,40.8,32.0,27.3,35.7,27.0,20.7,96,82,74,29.73,29.65,12,5,0,0.00
2013-3-4,54.3,38.3,25.7,53.7,34.0,18.1,98,85,65,29.87,29.72,10,3,0,0.00
2013-3-5,52.3,41.1,34.2,46.3,36.8,22.3,98,85,59,29.80,29.35,4,1,0,1.00
2013-3-6,43.0,36.6,31.6,40.1,33.1,27.2,98,88,69,29.85,29.34,17,6,0,0.02
2013-3-7,48.6,37.9,29.8,40.3,33.6,29.3,98,85,66,30.03,29.85,9,4,0,0.00
2013-3-8,54.9,41.4,30.6,54.3,39.1,30.1,98,92,71,30.08,29.98,8,2,0,0.00
2013-3-9,64.6,46.6,28.2,64.0,44.7,27.7,98,94,69,30.13,29.98,5,1,0,0.00
2013-3-10,66.6,50.1,34.3,51.5,42.5,33.8,98,78,56,30.07,29.92,8,1,0,0.00
2013-3-11,59.5,49.5,39.6,58.0,47.5,37.5,98,93,62,29.95,29.61,5,1,0,0.25
2013-3-12,61.2,52.7,41.9,54.6,47.8,40.1,98,85,57,29.74,29.47,7,2,0,1.21
2013-3-13,48.7,41.0,32.9,39.9,30.2,20.9,93,66,52,29.92,29.72,13,4,0,0.00
2013-3-14,49.6,37.7,27.7,29.8,23.6,19.0,75,58,44,30.04,29.90,11,4,0,0.00
2013-3-15,63.0,47.2,29.3,44.7,33.9,22.0,93,61,50,29.94,29.63,9,2,0,0.00
2013-3-16,80.1,59.5,39.9,64.0,51.0,39.4,98,78,44,29.63,29.39,11,3,0,0.00
2013-3-17,55.9,49.3,38.1,55.3,48.8,37.6,98,98,98,29.91,29.60,7,2,0,0.01
2013-3-18,37.9,36.2,35.1,37.4,35.7,34.6,98,98,98,29.92,29.63,6,2,0,0.35
2013-3-19,60.4,46.0,32.9,59.8,45.5,32.4,98,98,98,29.81,29.57,11,4,0,0.02
2013-3-20,57.4,44.8,33.6,56.8,44.3,33.1,98,98,98,29.86,29.54,8,3,0,0.00
2013-3-21,42.3,33.5,26.6,41.8,33.0,26.1,98,98,97,29.74,29.53,11,4,0,0.00
2013-3-22,55.0,36.7,20.5,54.4,36.1,20.0,98,98,94,29.83,29.66,6,2,0,0.00
2013-3-23,60.1,45.2,36.1,59.2,44.5,35.4,98,98,91,29.80,29.64,5,1,0,0.00
2013-3-24,40.5,37.5,32.9,40.0,37.0,32.4,98,98,98,29.68,29.30,6,1,0,1.09
2013-3-25,43.9,36.8,32.0,41.8,33.2,31.3,98,88,67,29.57,29.29,18,4,0,0.06
2013-3-26,44.6,38.3,32.4,39.8,35.4,31.9,98,90,70,29.90,29.57,13,4,0,0.00
2013-3-27,45.5,38.1,32.5,36.0,32.1,29.4,98,80,61,30.02,29.90,10,4,0,0.00
2013-3-28,53.4,42.4,33.3,39.9,34.5,30.8,98,75,59,30.04,29.94,7,3,0,0.00
2013-3-29,61.7,44.2,25.3,61.1,42.9,24.8,98,96,61,30.10,29.90,8,2,0,0.00
2013-3-30,66.4,51.0,35.8,50.2,41.8,35.3,98,73,51,30.01,29.80,5,1,0,0.00
2013-3-31,63.0,51.4,44.2,62.4,50.5,42.0,98,97,81,29.80,29.53,5,1,0,0.24